Weather History for Winnipeg, MB

Change the Weather History Date:

Saturday, January 28, 2012

  Actual Average Record
Temperature  
Mean Temperature 11 °F -  
Max Temperature 21 °F 11 °F 32 °F (2005)
Min Temperature 0 °F -2 °F -38 °F (2004)
Degree Days  
Heating Degree Days 54    
Moisture  
Dew Point 9 °F    
Average Humidity 76    
Maximum Humidity 85    
Minimum Humidity 57    
Precipitation  
Precipitation 0.02 in - - ()
Sea Level Pressure  
Sea Level Pressure 29.96 in    
Wind  
Wind Speed 14 mph ()    
Max Wind Speed 22 mph    
Max Gust Speed 18 mph    
Visibility 14.2 miles    
Events Snow    
Averages and records for this station are not official NWS values.
T = Trace of Precipitation, MM = Missing Value Source: Averaged Metar Reports

Daily Weather History Graph

Daily Weather History Graph

Search for Another Location

Airport:

Trip Planner

Search our weather history database for the weather conditions in past years. The results will help you decide how hot, cold, wet, or windy it might be!

Date:

Astronomy

Jan. 28, 2012 Rise Set
Actual Time 8:08 AM CST 5:16 PM CST
Civil Twilight 7:32 AM CST 5:51 PM CST
Nautical Twilight 6:53 AM CST 6:30 PM CST
Astronomical Twilight 6:15 AM CST 7:08 PM CST
Moon 9:52 AM CST (1/28) 11:48 PM CST (1/28)
Length of Visible Light 10h 18m
Length of Day
9h 07m
Waxing Crescent, 28% of the Moon is Illuminated
Jan 28
Waxing Crescent
Jan 30
First Quarter
Feb 7
Full
Feb 14
Last Quarter
Feb 21
New

Hourly Weather History & Observations

Time (CST) Temp. Windchill Dew Point Humidity Pressure Visibility Wind Dir Wind Speed Gust Speed Precip Events Conditions
12:00 AM 22 °F - 15 °F 63% 29.85 in 9 mi NW 19.6 mph - -  
12:00 AM 21.2 °F 6.0 °F 14.0 °F 74% 29.85 in 15.0 mi NW 19.6 mph - N/A   Mostly Cloudy
1:00 AM 21.2 °F 7.3 °F 14.0 °F 74% 29.85 in 15.0 mi NW 16.1 mph - N/A   Mostly Cloudy
2:00 AM 21.2 °F 7.3 °F 15.8 °F 80% 29.85 in 15.0 mi NW 16.1 mph - N/A   Mostly Cloudy
3:00 AM 21.2 °F 8.3 °F 15.8 °F 80% 29.86 in 15.0 mi WNW 13.8 mph - N/A   Overcast
4:00 AM 21.2 °F 8.3 °F 15.8 °F 80% 29.87 in 15.0 mi NW 13.8 mph - N/A   Overcast
5:00 AM 21.2 °F 7.3 °F 15.8 °F 80% 29.87 in 15.0 mi NW 16.1 mph - N/A   Mostly Cloudy
5:50 AM 21.2 °F 7.8 °F - N/A% - 15.0 mi NW 15.0 mph - N/A Snow Light Snow
6:00 AM 21 °F - 16 °F 75% 29.88 in 9 mi NW 13.8 mph - -   Overcast
6:00 AM 21.2 °F 8.9 °F 15.8 °F 80% 29.88 in 15.0 mi NW 12.7 mph 18.4 mph N/A Snow Light Snow
7:00 AM 21.2 °F 8.3 °F 15.8 °F 80% 29.89 in 15.0 mi NW 13.8 mph - N/A Snow Light Snow
8:00 AM 19.4 °F 4.5 °F 14.0 °F 80% 29.91 in 15.0 mi NNW 17.3 mph - N/A Snow Light Snow
9:00 AM 19.4 °F 7.9 °F 14.0 °F 80% 29.91 in 15.0 mi NW 10.4 mph - N/A Snow Light Snow
10:00 AM 17.6 °F 2.2 °F 8.6 °F 68% 29.93 in 15.0 mi NNW 17.3 mph - N/A   Scattered Clouds
11:00 AM 17.6 °F 3.2 °F 10.4 °F 73% 29.95 in 15.0 mi NW 15.0 mph - N/A   Scattered Clouds
12:00 PM 17 °F - 8 °F 57% 29.97 in 9 mi NW 17.3 mph - -  
12:00 PM 17.6 °F 1.3 °F 8.6 °F 68% 29.97 in 15.0 mi NW 19.6 mph - N/A   Partly Cloudy
1:00 PM 15.8 °F -1.1 °F 8.6 °F 73% 29.96 in 15.0 mi NW 19.6 mph - N/A   Partly Cloudy
2:00 PM 15.8 °F -1.9 °F 6.8 °F 68% 29.97 in 15.0 mi NNW 21.9 mph - N/A   Partly Cloudy
3:00 PM 15.8 °F 0.9 °F 6.8 °F 68% 29.99 in 15.0 mi NNW 15.0 mph - N/A   Partly Cloudy
4:00 PM 14.0 °F -0.2 °F 6.8 °F 73% 30.01 in 15.0 mi NNW 12.7 mph - N/A   Partly Cloudy
5:00 PM 12.2 °F -1.8 °F 5.0 °F 73% 30.03 in 15.0 mi NNW 11.5 mph - N/A   Partly Cloudy
6:00 PM 6 °F - 2 °F 78% 30.06 in 9 mi NNW 6.9 mph - -  
6:00 PM 6.8 °F -4.8 °F 3.2 °F 85% 30.06 in 15.0 mi NNW 6.9 mph - N/A   Partly Cloudy
7:00 PM 5.0 °F -9.1 °F 1.4 °F 85% 30.09 in 15.0 mi NW 9.2 mph - N/A   Clear
8:00 PM 5.0 °F -12.3 °F 1.4 °F 85% 30.11 in 15.0 mi NNW 13.8 mph - N/A   Clear
9:00 PM 3.2 °F -11.3 °F -0.4 °F 85% 30.12 in 15.0 mi NW 9.2 mph - N/A   Clear
10:00 PM 1.4 °F -14.5 °F -2.2 °F 85% 30.14 in 15.0 mi NW 10.4 mph - N/A   Clear
11:00 PM -0.4 °F -15.7 °F -4.0 °F 85% 30.15 in 15.0 mi NW 9.2 mph - N/A   Partly Cloudy